H-2A R/B (49337 NORAD) Tracking and Keplerian Element Data

This shows tracking and keplerian element data for the satellite.

Feedback or suggestion? Click here.




ElementValue
Catalog49337
NameH-2A R/B
Epoch Orbit55
Epoch Day323.29287874
Epoch Year2021
RAAN97.4722
Inclination31.9978
Eccentricity0.7279293
Argument of Perigee192.8736
Mean Anonmoly126.4339
Mean Motion2.29067936
Decay Rate4.526E-05
L11 49337U 21096B 21323.29287874 .00004526 00000+0 99597-3 0 9990
L22 49337 31.9978 97.4722 7279293 192.8736 126.4339 2.29067936 553

Live tracking and technical data element details for H-2A R/B (NORAD 49337). H-2A R/B can be tracked NOW for your location showing map with azimuth and elevation plus other details from your city location.

Track the satellite on the map from your city or location and see movement details for azimuth, elevation, latitude, longitude, range, height, and movement on the map or in text.







IsCatalogInMostPopularTable: catalog: 49337, numindb: 7
Update: records affected: 1



GetName: 49337 H-2A R/B

Hit Count: updated at: Mon, 06 Dec 2021 14:21:50 GMT